Wind_Speed
5 4 7 10 11 10 11 12 13 10 7 5 3 4 6 6 6 2 2 5 9 6 8 12 13 14 13 11 11 12 11 11 12 10 9 9 9 9 10 10 10 11 10 10 15 21 26 31 31 31 30 29 30 31 32 32 31 31 31 30 30 29 27 26 25 26 27 27 27 27 28 27 27 26 25 25 24 22 20 20 19 19 18 19 18 18
6 7 13 14 10 8 11 13 13 12 13 10 6 6 6 5 4 1 3 5 5 3 6 8 10 15 13 10 10 10 12 15 13 11 11 12 11 11 12 14 12 10 8 9 11 15 23 27 29 30 29 30 31 32 33 33 34 34 32 32 31 29 28 28 28 29 30 30 29 29 28 28 27 27 27 26 26 25 23 21 20 20 20 19 19 18
6 11 15 10 6 9 11 11 13 14 13 10 7 7 8 7 4 2 2 4 4 3 4 3 7 13 11 9 11 11 14 15 12 12 14 13 13 13 13 13 13 12 11 12 12 12 17 23 28 29 30 33 34 34 36 36 36 35 34 34 32 30 29 30 30 30 31 30 29 28 27 27 26 26 27 26 25 24 24 23 21 21 21 21 21 21
7 11 12 8 8 11 12 12 13 12 10 10 8 7 10 8 5 3 3 3 3 4 3 3 6 12 11 9 12 13 15 16 12 15 17 15 15 16 16 14 14 15 14 15 15 13 14 19 24 27 29 33 34 33 35 37 37 36 36 35 33 32 31 31 31 31 31 29 27 26 24 25 24 22 23 24 24 24 24 25 24 23 22 23 23 23
11 11 6 10 14 13 13 13 12 9 7 10 11 10 10 7 7 6 3 4 2 4 2 3 6 11 11 9 12 12 14 17 16 16 17 16 17 16 16 16 15 16 16 16 17 14 13 15 19 26 30 31 32 32 35 38 39 38 38 37 35 33 32 31 32 32 30 28 27 25 22 22 23 20 21 23 24 25 25 25 25 25 24 24 24 24
14 12 4 8 13 13 13 11 11 10 6 8 11 13 13 7 7 6 5 5 2 4 3 3 3 11 9 8 11 9 9 16 14 13 17 16 15 15 15 16 16 16 16 16 16 14 12 13 16 24 28 28 30 33 35 36 37 37 37 36 35 33 32 32 32 33 32 30 29 28 26 24 24 22 23 26 26 25 26 25 25 25 24 24 23 24
10 12 9 10 11 12 13 10 10 10 7 7 7 11 14 9 8 8 7 5 3 4 3 4 4 9 9 6 8 6 8 13 10 10 16 14 12 13 13 14 14 14 15 14 15 12 10 11 13 17 23 28 30 31 31 32 33 35 34 34 34 33 33 32 33 34 33 31 31 31 29 27 26 23 23 25 25 25 25 24 23 23 23 23 23 24
9 11 10 11 10 10 10 9 10 10 8 6 3 6 12 13 12 9 8 6 4 2 2 0 3 6 11 7 7 8 7 9 10 11 13 11 11 13 12 13 13 15 15 13 13 12 10 10 11 15 22 28 30 29 29 30 32 34 33 33 34 33 33 33 33 35 35 33 32 31 29 27 26 25 23 22 22 22 22 23 23 22 22 23 23 24
7 10 11 12 11 8 9 10 10 11 8 5 2 3 8 12 11 8 7 5 2 2 3 5 4 3 11 6 4 7 8 9 13 14 13 10 11 12 12 13 14 15 14 12 12 12 12 11 12 17 22 25 27 27 29 30 31 32 32 32 33 33 33 33 34 35 35 33 32 32 30 27 26 25 22 20 20 22 22 22 22 21 21 21 21 23
3 3 8 12 11 9 10 11 10 12 9 4 2 3 3 4 6 6 5 3 2 4 7 9 8 5 11 6 4 4 6 10 13 11 10 11 11 11 13 14 14 12 11 11 12 12 12 13 15 19 21 22 25 26 28 29 29 30 31 31 33 33 33 34 34 35 36 33 31 32 30 28 26 24 22 20 20 22 22 21 20 19 19 18 19 21
3 2 2 4 6 6 8 6 5 9 9 6 5 6 7 3 3 4 4 4 3 5 10 14 12 8 9 8 6 6 7 9 9 8 8 10 12 13 14 14 13 11 9 9 10 10 9 11 15 17 18 20 23 25 27 28 29 30 31 32 33 33 32 33 34 34 36 34 31 31 31 29 27 24 23 22 20 20 19 20 19 19 19 18 18 19
5 1 2 2 2 2 3 3 3 3 8 9 4 5 4 2 2 2 2 4 4 6 11 12 10 9 9 10 5 8 10 9 9 9 10 10 12 13 12 11 10 8 7 7 8 8 7 8 11 12 14 17 20 22 25 27 29 30 31 32 32 32 32 33 33 33 34 35 32 31 30 29 27 26 24 24 23 21 19 19 19 18 19 19 19 19
9 7 6 4 2 1 3 4 1 1 7 8 5 7 5 3 2 1 4 5 5 8 7 6 12 8 10 16 13 9 10 8 7 7 6 8 10 10 10 8 6 5 5 5 6 6 7 8 8 9 11 14 19 22 25 27 29 29 30 32 32 31 31 31 32 33 33 34 33 31 29 28 27 26 25 25 24 22 21 20 19 18 18 18 19 20
7 8 11 9 4 5 7 6 5 4 6 8 7 8 7 5 4 4 5 4 5 9 6 8 13 6 5 14 19 17 17 16 12 9 7 7 8 8 8 6 6 5 4 5 5 6 6 7 8 9 10 14 19 23 26 28 29 30 29 31 31 30 29 30 31 32 31 32 32 31 29 27 26 26 25 25 24 22 21 20 20 19 19 19 20 20
8 6 10 13 8 10 14 12 8 5 6 9 7 7 8 7 5 5 5 6 6 5 4 5 8 5 5 8 9 9 15 17 18 18 14 12 9 7 6 7 6 5 6 6 6 6 6 7 7 8 10 14 19 23 26 28 29 30 29 30 31 29 29 29 30 31 31 30 31 30 28 26 25 26 26 25 24 23 21 21 20 20 20 21 22 22
11 9 7 17 15 14 17 15 10 7 5 7 6 7 9 8 6 6 7 7 6 5 2 3 5 5 6 11 9 3 3 8 13 16 13 12 9 7 7 6 7 6 6 6 6 7 7 7 7 7 10 14 19 22 24 26 29 30 30 31 30 29 29 29 29 30 30 29 29 28 28 27 25 25 25 24 23 22 21 21 21 21 21 22 22 23
8 7 3 11 14 13 17 17 15 12 6 5 8 9 8 8 7 7 8 4 4 7 5 5 5 4 5 13 15 11 7 7 8 8 8 9 8 8 7 7 8 7 8 8 8 8 8 8 7 7 11 14 18 21 23 25 28 30 31 31 29 28 28 28 29 29 29 28 27 27 27 26 26 25 24 24 23 21 20 20 21 21 21 21 22 22
4 6 3 4 10 10 11 14 16 15 10 6 9 10 8 8 6 2 4 4 6 9 6 8 10 7 6 8 8 9 12 13 12 11 10 9 8 8 9 9 9 9 8 8 9 9 8 8 8 8 12 16 19 21 23 24 26 27 28 30 29 28 28 28 28 29 28 28 27 27 27 26 26 25 24 23 22 20 20 20 21 21 21 22 21 19
6 6 6 4 10 9 6 8 9 12 12 5 4 7 7 7 7 5 5 6 8 8 6 10 12 10 10 9 8 10 12 10 11 13 13 11 10 10 10 10 10 8 7 7 8 7 7 8 9 8 12 16 19 22 23 23 24 24 25 27 27 27 28 28 28 28 28 27 27 27 26 25 25 24 24 23 22 21 21 21 21 21 21 20 18 16
4 3 4 2 3 5 4 6 6 7 8 3 2 4 6 5 6 7 6 5 6 8 7 9 10 7 8 10 15 19 16 9 7 8 11 13 12 10 9 8 7 7 7 7 7 8 8 9 9 10 13 17 20 22 23 23 23 23 24 25 25 24 25 26 27 27 27 27 26 25 25 24 24 23 23 23 22 22 22 22 21 20 20 17 14 14
3 3 5 6 9 6 3 5 8 10 9 5 5 6 6 4 2 1 4 6 6 7 7 8 9 7 6 8 15 20 16 11 9 7 7 11 12 11 9 8 8 7 7 8 8 8 8 8 8 10 15 18 20 21 23 24 24 23 24 25 25 24 25 26 27 27 27 27 26 25 24 24 23 23 22 21 21 21 21 21 20 20 18 15 13 14
1 2 4 7 7 6 6 6 6 9 10 9 9 9 9 7 5 4 5 6 5 6 6 7 9 7 4 5 10 13 12 9 10 10 9 8 9 7 5 4 5 6 7 7 7 7 8 8 7 9 14 17 18 20 22 23 24 23 24 25 26 25 26 28 28 28 28 27 26 26 25 24 23 22 21 21 21 20 20 19 18 18 16 15 13 13
1 2 4 6 6 7 12 15 11 6 5 6 6 8 10 9 8 9 7 6 6 7 7 7 9 7 3 2 3 4 5 4 4 8 9 6 3 5 6 5 4 3 3 5 6 6 6 7 7 8 11 14 17 19 21 23 24 24 25 26 27 27 27 28 29 28 28 27 26 26 25 23 23 22 21 21 21 21 19 17 16 16 16 16 14 13
3 2 3 5 6 7 11 14 10 2 5 5 4 3 5 7 9 10 7 5 6 8 8 8 10 7 4 4 2 3 3 4 6 2 3 5 5 6 6 5 5 5 4 3 5 6 6 7 7 8 9 10 13 17 20 21 23 24 25 27 27 28 28 29 28 28 27 26 25 25 24 24 23 23 22 22 21 20 18 17 16 15 15 15 14 13
2 3 2 4 6 6 6 7 5 2 4 3 3 6 9 9 8 8 7 6 7 9 9 9 9 7 5 7 4 3 4 5 7 6 5 6 5 5 5 5 5 5 5 4 4 6 7 7 7 7 7 8 10 15 18 20 22 23 25 26 27 27 27 28 28 27 27 26 25 25 24 24 24 24 24 23 22 20 18 16 16 15 15 15 13 12
1 2 2 2 5 6 5 4 1 3 5 5 7 11 10 8 8 6 5 7 9 9 10 9 6 3 6 10 7 1 5 6 6 6 6 6 5 6 5 4 4 4 2 2 4 5 5 6 6 7 7 7 10 15 17 19 20 22 23 25 27 27 27 27 27 27 27 26 25 25 25 25 25 25 24 24 22 20 18 17 16 15 15 15 12 11
1 4 5 6 9 9 8 10 9 9 7 8 12 15 12 9 7 5 3 6 6 6 10 11 7 3 8 11 8 3 4 5 4 4 5 5 5 5 4 3 2 2 1 1 3 5 4 4 4 5 6 7 10 14 17 19 20 21 23 24 26 27 27 28 27 27 27 27 26 26 27 26 26 25 25 24 23 21 19 18 17 16 15 15 13 11
2 6 8 9 12 12 12 16 16 12 11 12 13 16 16 15 11 6 5 7 8 7 8 9 8 10 12 12 11 9 3 5 6 5 5 5 4 4 4 3 2 2 2 3 3 4 5 4 3 3 3 5 8 12 15 17 20 22 23 24 26 27 28 28 28 28 28 28 27 27 27 27 26 26 25 24 23 21 20 19 18 17 16 15 14 13
3 6 8 9 12 14 14 16 15 12 13 13 13 15 17 16 13 10 10 10 8 5 7 11 13 14 14 15 16 14 9 3 2 4 7 6 5 6 6 5 5 5 5 5 5 6 6 5 4 4 4 6 8 10 12 15 18 20 22 23 25 27 28 28 28 28 28 28 28 28 28 27 26 25 24 24 23 22 21 19 19 18 17 16 15 14
2 5 7 9 10 12 12 13 14 13 13 14 15 16 16 17 17 14 13 13 10 10 11 15 18 17 14 16 17 16 14 10 7 3 1 3 4 6 7 7 7 7 7 7 7 7 7 7 7 6 6 6 7 9 12 15 18 20 22 24 26 27 28 28 29 29 28 29 29 29 28 27 26 25 24 24 24 23 22 20 19 19 18 18 17 16
2 3 7 6 6 8 9 11 14 15 14 15 17 17 16 17 17 15 13 12 10 10 12 15 16 14 12 15 17 14 12 11 12 13 9 5 5 5 4 5 6 7 7 7 7 8 7 7 7 6 7 7 8 10 14 17 19 22 24 25 27 29 30 30 30 30 30 30 30 28 27 27 26 25 25 25 24 24 23 21 20 20 20 19 18 17
2 3 6 5 6 8 9 10 14 15 14 16 16 15 14 13 13 12 10 10 10 11 13 15 13 10 9 13 16 16 14 13 14 15 12 9 9 9 8 7 5 5 4 2 3 6 7 7 7 7 8 8 9 13 16 18 20 22 24 26 29 31 31 31 31 31 31 30 28 28 28 28 27 27 26 26 26 25 24 23 22 21 21 21 20 19
4 3 3 3 6 9 9 10 12 11 11 11 11 11 13 14 14 13 12 12 12 11 11 11 9 8 10 13 17 20 18 16 16 13 11 11 11 11 12 12 12 10 7 4 4 1 6 7 7 8 8 8 11 16 19 21 22 24 27 29 30 31 31 32 32 32 31 29 28 28 29 29 29 28 28 28 27 26 25 24 25 24 23 22 21 21
5 5 4 4 4 8 11 11 10 10 10 7 4 5 10 14 15 15 15 15 13 10 9 9 10 12 15 15 16 18 17 16 15 12 10 10 9 9 10 10 12 13 9 6 4 3 5 6 6 8 10 13 16 18 20 21 23 26 27 29 29 30 31 32 31 30 29 28 28 29 29 29 30 30 30 29 28 27 27 27 26 26 24 23 22 23
7 6 5 4 4 7 9 8 9 10 7 3 3 6 11 14 15 16 17 16 14 12 11 13 14 14 15 15 13 14 14 13 14 15 13 11 9 8 9 9 9 9 8 7 5 5 6 6 6 6 10 15 18 18 18 20 22 23 24 25 27 28 29 30 29 28 28 28 28 28 29 29 30 31 30 30 29 28 28 28 27 27 25 24 24 24
9 7 5 4 5 6 7 7 9 9 6 4 6 9 9 9 10 11 12 12 11 11 10 11 12 13 15 15 14 15 14 10 10 13 14 10 8 7 7 8 8 8 8 7 7 7 7 7 8 8 10 14 17 17 18 18 19 21 21 22 25 27 29 29 28 28 28 27 27 28 29 30 31 30 30 30 30 29 29 28 28 28 26 25 24 24
11 8 5 5 6 6 8 9 8 9 11 10 9 10 9 10 11 11 12 12 12 12 12 12 14 16 18 17 15 13 10 9 8 9 8 11 11 11 11 11 11 9 8 8 8 9 9 10 12 11 10 11 13 16 16 16 16 18 19 21 23 26 27 27 27 27 28 27 28 29 30 32 32 31 30 30 30 30 30 30 29 28 27 26 25 25
12 10 8 7 6 6 8 9 7 9 11 8 8 11 12 13 16 15 13 13 12 11 11 12 15 17 17 14 12 8 6 7 8 5 6 11 12 13 14 14 14 13 10 8 8 9 10 12 11 12 12 11 12 13 13 13 15 17 18 20 22 24 24 24 26 27 28 29 30 31 32 34 33 31 30 30 31 32 32 31 30 30 29 28 27 27
14 11 9 8 7 7 8 8 8 8 8 6 7 9 8 10 13 13 11 11 9 6 6 7 10 12 10 8 7 4 4 6 7 3 6 11 12 11 12 12 13 14 14 15 15 12 13 14 11 10 11 11 11 10 9 12 16 17 18 20 22 22 22 24 27 29 30 31 31 31 32 32 32 31 30 31 32 33 32 32 31 30 29 28 28 27
12 9 8 9 10 10 10 9 7 6 6 7 9 9 9 10 11 12 11 7 2 3 5 5 6 7 5 4 4 3 2 4 4 3 6 10 10 9 9 9 11 12 12 16 21 23 22 21 15 11 11 13 14 11 9 12 16 18 19 19 20 21 22 25 29 30 31 31 30 29 29 29 29 31 31 32 32 32 32 31 30 29 29 28 27 25
8 7 8 9 10 12 12 10 7 6 6 8 10 10 8 8 9 11 9 3 1 2 4 4 5 5 4 3 4 3 2 2 3 5 6 7 9 10 9 8 10 12 12 14 19 23 23 22 19 15 14 16 17 14 13 14 15 17 18 17 17 20 24 27 29 29 29 29 28 27 26 26 28 30 31 31 31 30 29 29 29 30 29 28 26 25
6 5 7 8 8 9 9 8 8 6 6 8 11 10 9 8 8 7 4 1 1 4 5 4 5 5 4 4 4 4 4 6 6 7 7 6 7 8 10 10 11 14 17 19 21 23 21 20 20 19 19 19 18 16 16 15 16 16 16 15 17 22 24 24 24 24 25 26 26 26 25 25 27 29 30 30 29 28 27 27 28 29 29 28 27 25
7 5 6 7 7 7 7 8 8 6 5 10 12 10 8 7 4 1 1 2 2 2 4 4 5 4 4 4 5 6 7 8 7 7 7 7 7 8 8 10 10 11 14 16 19 22 21 17 17 20 22 21 20 19 18 16 17 16 14 15 20 23 22 21 21 21 22 24 26 26 25 25 26 28 29 29 30 29 28 28 29 29 29 29 27 25
8 7 6 5 6 6 6 7 6 4 5 9 10 7 4 4 3 4 4 3 2 2 2 2 3 4 4 5 5 6 7 7 7 8 8 8 8 9 9 9 9 9 11 13 17 21 21 17 16 21 24 24 22 22 21 17 17 15 14 18 21 20 19 21 21 21 23 25 25 24 24 24 26 28 30 30 31 30 29 30 30 29 29 30 28 26
10 11 9 7 6 6 6 5 4 4 5 6 6 5 4 4 5 5 4 3 2 3 1 2 4 4 4 5 5 5 6 6 6 8 8 8 8 9 9 9 9 8 10 12 16 20 20 18 18 21 23 25 24 23 22 20 18 16 17 21 20 17 18 19 19 21 24 24 24 24 22 22 25 28 30 31 32 32 32 32 32 31 30 30 29 26
10 11 10 7 6 6 6 6 5 5 5 5 6 6 4 6 7 6 6 5 4 4 3 3 5 4 4 4 4 4 4 5 6 6 7 8 8 9 9 9 9 10 10 11 14 18 19 19 19 18 19 22 24 22 22 21 18 18 20 21 18 16 17 17 18 21 23 24 24 24 21 21 24 27 29 31 33 34 35 35 35 33 32 31 29 27
7 9 8 6 6 7 7 8 9 9 10 9 9 8 4 6 5 4 5 5 5 5 5 5 5 5 4 4 3 4 4 3 4 5 6 7 8 9 9 9 10 11 11 12 14 17 17 15 13 13 14 17 21 21 21 21 20 19 19 18 16 15 15 17 21 23 23 24 24 23 22 23 24 26 28 30 31 31 32 33 34 33 32 31 29 26
5 7 7 7 8 8 8 9 9 9 9 9 7 6 4 5 5 6 7 6 6 6 5 5 5 5 4 4 3 3 3 2 3 5 6 6 7 7 8 9 10 12 14 16 17 16 14 11 11 12 12 14 19 22 22 22 22 21 18 17 17 15 15 18 22 23 23 23 23 22 23 25 26 27 28 29 30 31 31 32 33 33 33 35 35 32
4 5 5 5 7 7 8 9 9 9 10 10 8 7 6 6 8 9 8 7 6 4 3 5 5 4 4 4 3 2 2 2 2 4 6 6 7 7 7 9 11 13 16 18 18 16 13 11 12 14 13 15 19 22 22 23 23 21 18 17 17 16 16 18 20 21 21 21 21 22 23 24 25 27 27 28 29 30 31 33 35 35 35 36 38 37
4 4 4 4 4 5 7 8 8 8 9 9 8 8 9 9 8 8 8 7 6 4 3 6 6 4 4 3 1 2 2 2 2 4 6 6 6 7 8 10 11 13 16 19 19 17 15 14 15 16 16 17 20 21 21 22 21 19 17 15 15 16 17 18 18 19 19 18 19 21 22 23 24 25 26 27 27 26 24 26 29 30 31 32 33 33
6 7 6 6 6 7 8 9 8 7 7 7 7 8 7 5 6 7 7 7 6 5 5 5 4 3 3 2 3 4 1 2 3 4 5 5 6 8 9 10 11 13 17 19 18 16 16 15 16 16 17 19 21 21 21 22 19 16 14 12 13 15 18 18 17 16 16 17 18 20 21 22 23 24 25 25 25 24 21 18 18 20 22 25 26 26
Wind_Direction
185 198 211 217 217 203 200 213 222 242 261 262 271 261 244 236 239 238 99 178 176 186 224 220 236 249 247 243 242 251 250 237 231 223 228 230 234 242 239 237 230 226 230 222 215 209 207 211 213 212 211 209 207 206 205 203 203 205 206 207 211 215 218 218 216 209 205 203 202 203 204 206 207 208 209 209 210 209 211 213 213 214 214 214 215 217
195 212 224 221 212 202 204 214 219 235 252 260 269 274 277 253 244 3 98 178 191 214 242 231 244 252 251 245 233 234 244 244 234 225 230 228 228 236 239 242 239 235 234 225 216 202 202 205 205 205 204 202 202 202 203 203 205 206 206 208 210 213 213 214 212 207 204 202 201 201 202 203 205 207 209 209 211 210 210 212 213 215 216 216 215 216
205 230 236 222 199 215 216 213 210 218 232 242 252 259 265 245 228 355 66 176 192 218 252 272 273 265 257 248 238 228 236 244 233 227 233 229 229 233 234 240 241 240 238 231 227 209 203 202 199 199 200 202 204 203 203 205 206 206 207 208 210 211 211 211 210 206 204 203 202 201 201 202 203 207 210 210 213 214 214 214 214 215 215 217 218 217
215 234 234 216 212 221 220 221 212 210 218 223 228 233 247 243 216 257 257 204 220 239 268 337 302 278 266 252 245 233 237 247 236 230 235 227 228 233 232 235 235 236 238 235 234 224 213 207 200 199 200 204 206 204 203 204 205 205 206 208 208 209 210 209 208 206 203 200 200 201 203 204 203 207 211 213 217 218 217 217 215 215 214 215 217 219
230 235 212 199 214 220 220 224 216 210 217 216 218 226 238 230 209 234 211 157 278 294 292 338 311 281 260 237 242 234 229 243 238 231 239 232 227 232 233 234 233 233 236 236 237 230 220 213 205 204 205 205 205 204 204 204 203 204 206 208 207 207 208 208 206 202 199 196 195 196 198 200 200 204 206 206 209 211 212 212 211 211 213 214 218 221
237 241 236 209 212 218 223 223 212 205 218 227 219 223 232 219 194 202 154 139 285 281 218 174 275 282 262 213 233 237 214 236 237 225 236 236 228 230 232 234 232 234 236 237 240 233 219 213 207 207 206 205 207 208 207 205 204 204 206 207 206 205 206 206 203 198 194 192 191 191 189 188 190 194 196 195 194 195 198 201 203 206 211 215 219 223
241 236 239 240 220 214 223 223 209 196 215 239 217 213 223 217 199 188 166 164 221 250 221 162 197 273 277 219 223 226 207 235 239 224 235 234 227 227 227 232 232 234 237 238 241 235 215 205 202 206 206 206 210 211 207 205 204 204 205 205 204 203 203 202 199 196 192 191 191 191 191 190 190 191 193 194 194 194 197 201 206 212 218 223 224 225
232 223 223 242 231 215 219 219 208 197 215 242 223 207 207 206 210 193 171 185 213 253 341 223 190 268 278 250 208 198 205 247 251 237 238 228 223 227 225 228 227 229 233 232 236 233 217 203 197 203 206 207 211 211 206 203 203 204 204 204 202 201 199 197 195 193 191 191 191 192 194 194 194 194 194 196 199 204 210 215 219 223 226 228 227 226
225 213 204 219 225 214 213 217 208 200 214 231 234 226 194 195 203 180 171 199 227 253 251 234 188 240 271 262 160 186 203 237 246 238 239 230 220 223 226 228 227 228 228 225 228 227 221 214 205 204 205 208 210 209 206 204 204 203 202 200 198 196 195 194 193 192 191 192 192 193 194 195 198 200 201 204 209 212 215 216 218 219 220 223 225 224
246 211 205 212 217 213 217 221 207 205 215 199 135 60 75 164 167 152 168 176 186 227 234 223 187 202 268 262 151 189 208 221 239 238 233 233 224 220 225 227 228 228 222 219 222 221 218 216 211 203 200 202 204 205 205 203 202 200 197 195 194 193 192 191 190 190 190 191 193 194 195 197 200 202 202 204 206 206 205 204 204 204 205 210 216 218
271 18 276 233 224 227 233 229 217 215 195 132 101 78 56 47 100 126 156 149 171 230 238 228 192 180 261 266 182 200 224 210 227 245 230 225 227 225 226 227 226 221 214 210 209 208 204 202 201 193 188 191 194 198 199 199 198 195 193 192 191 190 189 188 188 188 189 191 193 195 197 199 200 198 198 198 197 194 193 197 199 200 201 203 209 214
255 258 274 280 291 307 268 239 322 254 160 129 120 130 90 19 50 68 175 181 189 230 242 226 182 170 239 261 191 191 232 210 196 229 228 218 227 229 233 236 224 204 193 187 185 185 177 179 184 182 184 186 184 188 192 193 194 191 190 188 187 187 187 185 185 186 189 191 194 197 198 199 199 197 197 198 200 199 198 202 205 208 211 215 219 223
244 225 218 244 290 315 242 204 233 265 160 155 159 157 166 204 178 162 200 202 208 238 252 169 155 177 234 254 246 229 259 252 205 218 212 201 217 228 236 232 199 156 144 153 165 173 172 176 180 180 184 179 175 181 185 186 187 186 187 185 183 184 183 183 184 185 188 192 195 197 198 200 200 199 200 202 204 206 208 209 209 210 213 217 222 225
244 221 205 216 232 201 210 207 196 200 184 182 170 170 192 190 188 204 195 204 222 240 255 154 164 196 238 253 255 244 248 257 256 262 252 225 214 211 214 192 161 157 162 170 184 191 191 187 182 182 183 176 174 178 179 181 182 182 182 182 180 180 180 181 183 186 190 193 195 197 197 199 200 200 203 205 205 206 209 212 213 215 217 220 225 228
253 245 191 192 196 185 202 218 209 184 189 200 184 186 206 195 198 209 188 208 220 237 271 177 184 207 206 239 260 231 226 234 245 255 257 254 239 203 184 169 170 191 193 190 195 203 208 200 188 187 185 179 177 179 178 178 179 179 180 180 178 177 178 180 182 185 190 193 196 197 197 199 200 202 205 207 210 213 215 218 220 223 225 229 233 238
249 261 192 189 196 184 195 213 207 181 194 207 196 205 213 204 215 232 223 217 211 224 248 186 216 231 240 267 282 272 199 202 228 246 250 257 243 193 178 182 190 203 199 191 192 200 208 208 200 193 189 182 179 180 180 178 177 177 177 177 177 176 177 179 182 186 190 192 194 197 198 199 201 203 206 209 214 218 221 225 227 230 232 236 242 247
247 258 198 192 208 198 194 202 198 193 194 184 199 213 211 214 229 239 243 233 201 227 211 165 217 258 288 279 266 251 245 217 218 233 234 238 222 193 195 199 200 208 201 188 189 195 195 200 206 200 194 186 178 179 181 180 179 177 175 174 174 175 176 180 184 187 190 191 193 195 198 200 202 205 209 213 216 219 223 228 231 234 237 241 248 254
327 295 314 206 223 226 211 208 206 205 203 189 201 201 193 226 247 237 244 233 209 230 217 178 196 207 222 257 258 233 234 232 224 219 222 221 209 210 219 217 213 213 201 186 185 188 185 191 200 199 195 187 179 177 180 182 180 176 174 172 171 173 177 182 186 188 190 191 193 195 198 201 204 208 211 215 217 219 222 226 231 235 240 246 252 256
0 316 287 224 218 231 220 214 223 221 219 222 218 189 180 216 224 201 226 235 221 231 229 205 203 198 206 232 260 247 232 225 217 213 217 217 211 216 225 229 223 208 194 183 178 181 183 188 193 190 186 182 176 175 176 178 176 173 173 173 173 176 181 184 187 189 191 193 194 197 200 203 206 210 213 216 218 220 223 229 234 238 243 248 251 252
355 309 283 332 289 264 215 201 218 223 226 267 310 220 211 220 210 204 219 231 232 236 234 225 218 207 206 221 245 250 244 237 238 228 216 213 218 220 216 221 216 194 187 183 177 181 183 184 186 181 176 174 171 169 170 171 171 170 172 174 174 177 181 184 187 189 191 193 195 198 200 203 206 210 214 218 221 223 227 231 235 238 242 244 245 248
314 272 275 323 331 315 246 205 199 201 206 208 220 229 230 227 213 214 232 230 234 238 234 233 232 223 206 213 236 248 251 248 253 253 219 209 218 218 206 204 203 194 192 188 181 180 177 176 175 170 168 168 165 164 165 167 169 169 171 174 176 177 179 183 187 190 191 192 194 196 198 201 205 209 214 218 223 226 228 230 233 236 239 237 237 245
291 268 283 300 311 301 289 289 255 225 218 206 204 213 214 214 225 238 239 225 224 240 239 242 248 236 198 216 244 256 261 253 243 235 221 211 208 190 164 176 185 181 187 189 180 172 168 167 164 158 157 158 158 159 162 166 169 170 172 175 177 178 180 184 187 190 191 192 193 196 199 202 205 209 213 217 220 222 224 227 230 233 231 228 230 244
264 255 280 278 274 281 292 297 293 290 285 259 232 218 214 209 208 218 224 213 213 232 241 257 263 246 203 243 278 290 292 300 274 234 213 193 150 111 89 71 75 104 152 169 163 159 160 161 157 152 152 154 156 159 162 167 170 172 175 177 178 181 184 187 189 190 191 191 194 197 200 202 205 208 211 213 215 218 220 222 225 227 226 224 227 240
289 275 272 281 282 284 286 278 267 349 14 307 284 289 264 239 224 224 225 222 223 221 218 237 250 246 261 289 330 10 340 8 23 9 160 117 78 77 78 66 57 49 46 97 139 145 149 150 148 150 152 155 160 161 164 168 172 176 178 179 180 183 185 188 189 190 190 192 194 197 199 202 205 206 207 210 213 215 215 216 219 221 221 223 224 232
299 303 322 325 311 302 295 270 238 94 34 344 330 328 322 323 302 269 246 241 243 228 219 232 237 234 254 268 284 25 39 44 38 36 67 86 81 76 69 58 50 41 31 44 98 129 147 149 150 158 160 162 165 166 168 171 174 177 179 181 183 184 185 187 189 190 191 193 193 194 197 200 202 204 205 207 211 212 210 210 214 217 218 221 222 225
210 281 304 315 293 285 283 272 270 13 353 337 322 307 312 345 346 317 276 252 237 222 224 234 244 287 283 267 265 96 84 67 50 44 52 66 76 77 74 65 55 49 30 40 81 111 146 156 158 165 166 168 169 170 171 173 176 178 180 184 186 186 184 186 189 191 191 192 192 192 195 197 200 203 205 207 210 211 208 208 212 215 217 220 220 220
190 247 239 227 246 259 270 280 301 329 321 302 304 303 305 316 319 319 296 275 272 254 236 225 215 267 283 275 272 244 152 126 117 101 83 82 86 85 88 89 81 88 143 135 92 90 99 116 144 165 172 175 173 173 173 175 178 179 179 184 188 188 186 187 189 191 191 192 192 192 194 197 201 205 207 209 210 211 210 209 211 215 219 222 219 216
237 251 232 225 240 250 261 271 283 297 294 288 292 292 292 294 296 299 280 285 312 308 260 240 221 222 239 252 263 270 241 144 144 148 131 129 147 142 127 121 128 141 153 158 155 138 122 113 109 126 148 159 166 173 176 178 181 183 182 184 187 188 188 188 189 190 191 192 191 193 196 200 205 208 209 209 210 210 211 211 212 214 217 220 219 218
233 250 238 236 248 252 254 262 271 277 276 277 278 277 282 287 288 289 282 280 294 287 281 298 287 256 242 240 245 257 265 256 143 137 131 133 155 156 148 158 168 175 177 177 181 176 170 175 177 165 161 158 163 173 178 181 184 185 186 186 186 188 189 189 190 191 192 192 193 195 199 201 204 207 208 206 206 209 211 212 213 213 215 219 221 221
211 252 254 251 253 254 256 264 272 275 275 278 279 276 279 283 281 280 279 273 268 263 273 289 288 279 268 255 248 251 263 281 298 289 124 120 177 178 168 173 176 177 180 182 186 184 181 188 193 190 185 177 175 178 181 185 187 188 189 188 188 190 191 191 192 193 193 195 197 197 198 200 203 204 204 204 204 208 210 212 213 214 215 217 219 221
187 263 276 283 279 269 271 278 278 275 272 270 271 269 268 273 275 272 269 266 265 269 275 278 282 287 285 273 268 267 273 287 291 285 289 299 270 245 208 190 178 170 166 165 172 179 179 180 182 186 192 197 199 193 190 190 191 193 194 192 191 194 194 194 195 197 198 200 199 197 196 198 200 201 202 203 205 207 209 211 213 214 215 216 217 218
205 264 295 308 295 278 276 277 275 277 275 264 262 267 268 267 269 263 256 255 259 272 282 283 282 284 291 292 290 286 280 275 274 279 287 291 290 295 292 273 244 209 190 153 142 160 168 175 180 186 196 207 207 203 201 197 194 195 196 195 196 197 197 197 199 201 203 204 200 197 197 197 198 200 202 203 205 207 209 210 212 212 214 214 215 216
217 247 284 274 274 281 279 275 278 285 283 265 251 251 255 257 260 261 259 256 252 252 263 268 267 282 305 309 299 293 288 278 269 268 274 276 277 281 284 286 285 277 274 308 335 229 184 184 188 192 202 210 209 213 215 207 200 200 201 199 199 198 197 198 202 204 206 205 203 201 200 199 199 201 203 204 206 207 208 210 211 213 215 215 215 216
213 225 240 235 256 274 273 276 279 269 261 264 262 246 252 259 263 265 267 265 255 243 248 266 276 287 293 289 283 286 293 297 294 282 262 255 258 259 261 268 280 287 295 308 307 254 219 214 207 202 206 211 215 223 227 220 213 210 207 203 200 197 197 199 202 205 207 207 206 206 203 201 201 203 205 205 205 206 207 210 213 216 217 216 213 214
223 222 228 231 239 259 266 270 262 254 256 295 297 257 253 258 263 268 272 272 268 262 262 267 268 269 274 276 280 289 295 308 319 311 290 266 254 256 255 248 250 265 286 294 275 239 234 243 238 219 211 215 220 225 228 226 223 218 211 205 199 195 197 199 201 204 207 207 208 207 206 204 204 205 205 204 203 204 206 209 213 216 217 215 214 215
228 226 221 226 236 249 256 247 246 265 291 298 274 269 269 270 275 281 280 274 270 268 263 260 263 269 277 281 285 290 296 309 314 304 304 310 314 319 309 286 264 243 238 253 259 249 246 252 252 243 225 220 221 222 224 227 227 220 211 205 199 196 197 199 201 204 206 206 207 208 208 208 206 204 202 200 199 201 205 208 211 214 215 214 214 215
223 225 220 223 227 233 248 249 254 274 278 269 265 268 269 270 273 278 280 272 265 263 259 260 268 275 278 279 281 288 303 316 297 283 317 344 347 350 348 336 323 298 255 239 249 256 258 259 263 267 258 238 226 223 225 228 228 220 210 203 199 197 196 197 200 204 205 206 208 209 210 211 209 205 200 196 196 200 205 207 209 211 212 210 209 211
219 218 215 220 222 224 245 256 257 259 261 256 244 240 239 244 249 252 260 268 268 263 256 255 259 264 267 270 281 302 325 310 290 290 344 344 342 349 348 342 341 338 321 294 276 265 266 271 278 284 276 255 238 231 227 228 226 217 208 202 199 196 194 196 200 204 205 207 210 211 212 212 209 205 200 197 198 202 205 206 207 208 209 209 209 210
224 221 218 225 234 233 241 250 248 248 254 253 245 247 252 256 254 252 255 260 255 235 226 233 243 250 256 263 282 322 333 289 282 313 345 332 334 346 344 338 340 346 345 337 331 323 310 308 309 297 281 266 256 248 233 227 223 213 207 204 200 196 196 200 204 207 209 213 215 216 215 211 208 206 203 202 205 206 206 206 206 206 206 208 209 209
225 224 221 225 233 235 238 244 246 246 247 242 240 244 251 260 262 260 259 260 230 203 222 237 247 253 260 275 287 297 273 266 279 319 325 321 325 333 338 339 339 340 342 341 341 340 335 333 327 304 285 280 277 274 258 236 221 211 210 208 200 198 202 207 212 215 217 220 221 221 219 213 208 207 207 209 211 211 208 205 203 201 201 202 204 205
218 216 216 222 230 233 236 241 246 246 239 237 242 243 245 256 255 248 251 274 38 287 277 278 282 283 282 281 277 262 264 307 314 304 307 316 325 329 332 336 337 336 336 337 339 341 339 335 327 312 299 292 287 282 269 247 225 216 217 211 202 205 212 216 219 219 220 222 223 222 220 216 212 210 212 215 215 212 208 205 201 199 198 196 197 197
208 208 213 219 224 230 236 242 251 252 219 215 237 241 231 240 251 247 254 292 278 305 328 323 296 300 314 314 308 311 333 339 319 304 311 318 321 325 330 336 342 341 339 339 343 345 342 334 326 319 309 303 297 288 274 254 235 228 222 211 211 218 221 221 220 218 219 223 224 222 219 215 214 213 214 216 214 209 205 203 201 199 195 192 191 191
199 205 218 216 215 226 232 233 244 252 199 200 224 232 217 222 234 216 244 251 236 292 330 323 310 327 356 345 332 331 329 320 310 316 328 328 326 328 330 336 342 339 336 338 341 343 342 334 325 318 310 305 299 289 279 260 244 240 228 219 226 228 222 219 217 214 218 221 222 222 220 215 214 214 214 213 211 207 202 198 196 195 192 189 186 183
196 205 226 214 201 214 227 228 231 234 210 208 217 218 205 200 170 165 217 246 225 226 262 301 313 328 349 343 334 329 320 312 320 337 336 329 331 332 328 330 334 335 338 338 335 336 336 330 323 319 314 311 304 294 285 269 254 250 244 240 241 234 222 217 213 211 217 222 224 226 224 219 216 214 213 212 208 203 197 192 190 189 187 186 182 177
200 207 222 222 210 213 224 229 215 204 209 211 208 204 194 186 179 183 202 216 209 217 255 310 292 297 327 332 326 322 314 317 335 339 328 324 328 325 319 321 326 329 332 331 329 330 330 326 321 316 312 312 311 305 295 280 262 253 255 257 256 247 234 223 214 213 219 224 228 231 228 222 218 214 212 209 204 198 192 187 184 182 181 182 179 175
212 212 219 226 237 243 245 246 241 239 245 239 235 236 202 173 181 190 189 197 210 207 202 235 256 272 292 300 306 305 301 319 332 323 316 321 322 318 315 316 321 326 328 327 326 326 327 325 322 319 312 313 315 312 304 292 272 257 258 263 264 259 249 236 224 222 225 227 231 232 227 219 214 211 209 207 204 200 194 188 183 180 178 178 178 176
221 222 224 223 229 241 247 245 243 249 254 253 258 262 219 168 182 206 197 200 211 205 201 217 242 260 259 250 261 275 282 313 326 313 317 324 318 315 319 321 321 321 320 322 321 322 323 325 324 322 316 315 318 316 310 302 291 278 272 270 264 256 247 236 228 226 226 227 229 227 220 213 209 205 204 203 201 198 195 190 186 180 176 176 176 175
208 212 221 225 225 230 240 244 245 252 256 252 254 251 203 175 204 228 225 226 226 215 212 229 249 261 262 250 256 274 289 327 334 318 318 321 314 314 320 321 320 317 316 319 321 321 323 324 322 320 316 317 323 323 317 310 305 298 290 280 268 256 241 231 227 225 225 226 223 218 213 208 203 199 197 197 197 195 192 190 188 184 183 184 183 179
185 184 199 218 229 238 250 253 255 264 266 259 249 240 229 218 215 214 219 231 234 228 254 274 269 266 277 280 290 310 307 321 353 333 317 312 312 318 323 319 316 314 313 316 320 323 327 328 324 320 317 322 330 332 326 318 312 306 298 286 273 258 242 232 228 227 228 225 218 211 206 202 199 196 194 192 194 195 195 194 193 191 192 194 194 191
201 207 204 209 230 240 242 239 236 243 256 258 252 246 245 240 225 208 201 203 203 207 251 272 271 267 275 284 356 42 321 313 4 336 312 307 312 320 322 319 315 314 313 314 320 327 334 335 330 323 322 329 336 337 330 322 317 312 303 289 273 257 244 235 228 226 224 219 210 204 199 195 195 194 192 190 189 190 193 197 198 198 198 197 198 199
218 222 213 215 229 229 229 233 231 232 245 254 256 256 249 226 204 197 187 182 190 202 209 219 236 257 276 311 63 76 33 335 349 329 311 314 321 319 317 317 315 310 310 315 322 328 332 335 333 328 327 333 339 339 333 326 324 325 317 299 278 261 248 237 228 221 218 212 206 200 195 192 192 191 190 189 186 181 178 180 189 200 204 202 199 199
Height
764 769 766 759 752 750 752 750 749 745 742 744 745 746 744 742 739 735 742 747 744 747 748 744 742 737 733 731 728 725 723 723 722 722 721 720 718 716 714 713 712 712 711 711 712 714 715 715 717 719 721 723 726 728 729 730 732 733 736 738 739 742 745 747 749 751 753 755 756 759 760 761 763 766 768 770 772 773 774 776 777 778 779 779 780 781
762 766 755 745 746 746 746 746 747 748 745 745 747 747 746 743 740 739 744 746 744 746 742 737 737 732 727 726 723 722 720 716 715 718 717 715 715 713 710 709 708 707 707 707 709 710 711 711 713 715 717 719 721 722 724 726 727 730 732 734 736 738 741 743 745 747 749 750 752 754 756 758 761 763 765 767 769 771 772 774 775 775 776 777 778 780
764 759 744 741 745 743 741 741 743 746 746 748 747 748 747 741 740 744 747 747 746 746 741 737 736 728 724 723 719 717 714 708 709 711 710 709 710 708 706 705 703 703 704 703 704 706 707 708 709 710 712 713 714 716 718 721 723 726 728 730 733 735 737 739 741 743 745 747 749 752 754 756 759 761 763 765 767 769 770 771 772 773 774 775 776 777
762 750 739 742 741 739 739 737 738 742 744 746 746 747 743 737 740 743 746 750 748 744 743 742 741 729 721 721 717 713 709 703 704 704 702 703 703 702 700 699 699 698 698 698 698 700 702 703 705 705 706 707 709 711 712 715 718 720 723 725 728 730 733 735 738 740 742 745 748 751 753 756 758 760 762 764 766 767 768 769 770 771 772 773 774 775
749 738 734 738 737 736 737 735 735 739 742 741 741 742 738 737 740 738 743 752 748 745 745 744 742 722 708 713 710 706 706 700 698 700 698 697 696 696 695 694 694 693 692 692 691 693 696 697 698 698 700 702 704 705 706 708 711 714 717 720 723 726 729 731 734 737 740 743 746 749 752 755 757 759 760 761 762 763 765 766 767 768 769 771 771 772
740 732 731 734 735 734 734 734 732 734 739 739 736 734 734 736 737 737 743 749 746 746 743 742 742 716 691 697 698 697 704 697 692 696 693 691 691 691 691 689 688 688 686 686 685 687 689 690 692 693 695 697 698 699 701 703 706 709 713 716 719 722 725 728 730 734 737 739 743 745 748 750 751 754 755 756 757 759 761 762 764 766 767 768 769 770
733 731 732 732 732 733 733 732 729 730 738 737 729 726 730 734 735 736 739 742 742 741 738 737 740 720 692 687 689 691 697 693 692 693 686 685 686 685 686 684 684 684 682 682 681 682 684 685 687 688 690 692 693 695 698 701 704 707 710 712 716 719 721 724 727 730 733 736 739 741 743 745 747 749 751 753 755 757 759 760 762 764 765 766 767 768
728 730 733 732 730 731 732 730 725 728 735 733 724 722 727 730 733 735 735 738 737 734 737 736 736 731 706 687 685 685 688 689 689 687 681 681 681 679 680 679 679 678 677 678 678 678 681 681 682 683 685 687 689 693 696 699 701 703 707 709 713 715 718 721 724 726 729 732 735 738 741 743 745 747 749 752 754 756 758 759 760 761 762 763 764 765
725 729 731 729 728 728 726 724 722 725 730 728 724 723 723 724 730 733 734 738 736 736 743 737 733 737 713 684 682 683 685 686 680 677 678 678 677 675 675 674 673 672 672 673 674 675 676 677 678 679 681 684 687 691 693 695 698 701 704 707 710 713 715 717 720 723 726 729 732 735 738 741 743 746 749 751 753 754 756 757 757 758 759 760 761 763
727 730 728 725 725 724 720 718 719 721 725 725 725 724 721 724 728 732 737 739 740 744 747 735 731 735 709 679 682 687 685 682 674 673 676 674 672 671 669 668 667 667 668 670 670 672 672 673 675 677 679 682 684 687 690 693 696 698 701 705 707 710 712 714 717 719 723 726 729 732 735 738 741 744 747 749 751 752 753 754 755 756 757 758 759 760
729 731 730 727 724 720 717 718 718 717 720 723 726 726 728 731 730 734 738 738 747 753 742 728 726 732 711 677 675 681 673 670 670 669 670 669 667 665 662 661 661 662 664 665 666 668 669 670 672 675 677 679 682 685 688 690 693 696 699 701 704 707 709 711 714 716 720 724 727 729 732 735 739 742 744 746 748 749 751 751 753 754 755 756 757 758
730 734 732 727 726 723 720 720 720 718 718 722 727 728 736 741 738 744 744 741 756 751 728 721 724 732 720 679 664 667 657 657 662 660 660 662 662 660 658 657 657 658 659 661 663 665 667 670 671 674 675 677 680 683 685 688 690 693 696 699 702 704 706 708 711 714 717 721 724 727 730 733 736 739 741 743 745 746 748 749 750 752 753 754 755 756
728 731 730 727 727 726 725 723 723 724 720 722 726 728 737 743 748 759 752 746 754 735 715 721 722 725 719 682 661 663 657 653 654 652 653 655 656 657 656 656 656 658 659 660 663 664 666 669 670 672 674 676 678 680 682 685 687 690 693 696 699 701 703 705 708 711 714 718 721 724 728 731 734 737 739 741 743 744 746 747 748 749 750 751 752 753
726 724 726 730 729 723 724 723 724 726 724 723 724 726 733 736 749 762 749 742 744 724 714 722 718 717 710 677 659 661 660 656 652 650 651 650 650 652 652 654 656 658 660 662 663 665 665 667 668 670 672 673 675 677 680 682 684 687 690 693 696 698 701 703 705 709 712 716 719 722 725 728 731 734 736 738 740 742 743 744 745 746 747 748 748 749
729 723 719 724 723 716 718 717 714 717 720 719 714 717 723 720 729 740 731 729 729 719 721 729 723 716 694 660 647 649 650 653 651 648 648 648 648 649 650 653 655 656 659 662 663 664 665 665 666 668 669 671 673 675 677 679 682 684 687 690 693 695 697 700 703 707 710 713 717 720 723 726 729 732 734 736 738 740 741 742 743 743 744 744 745 746
726 716 704 707 707 705 711 710 707 711 718 718 711 715 717 707 707 711 706 705 707 709 719 725 718 701 675 650 642 644 646 647 649 647 647 648 646 647 650 651 652 654 656 659 661 663 664 664 665 666 667 669 671 673 675 677 679 681 684 687 689 692 694 697 701 704 708 711 715 718 721 724 727 729 732 734 736 737 738 739 740 740 741 741 742 744
725 711 699 704 704 699 703 702 700 705 709 711 712 713 708 700 698 702 700 695 696 701 700 701 704 694 677 657 641 644 649 645 647 648 646 647 645 645 648 648 650 650 651 655 657 659 660 661 663 664 665 667 668 671 673 675 677 678 680 683 686 690 693 696 699 703 706 710 713 716 719 722 724 727 729 731 733 735 736 737 737 737 738 739 740 741
740 729 710 709 709 700 698 698 696 696 695 700 707 706 702 704 704 705 708 699 696 697 683 680 692 693 686 664 636 638 647 643 644 644 642 644 644 644 643 643 644 644 646 650 653 655 656 658 661 661 662 665 666 669 672 674 676 677 678 680 683 687 690 694 698 701 704 707 711 714 716 719 722 724 727 728 731 732 733 734 734 734 735 736 737 738
757 750 718 703 708 702 696 702 704 698 692 695 699 695 697 709 712 710 711 703 698 695 679 673 679 679 676 662 641 639 641 637 637 638 639 640 640 640 639 638 639 640 643 647 649 652 653 654 657 658 660 662 664 667 670 673 674 676 678 680 682 685 688 693 696 699 703 705 708 711 714 717 719 722 724 726 728 730 730 731 731 732 733 733 735 735
763 759 729 706 709 708 700 705 711 706 700 700 700 695 691 695 699 699 697 693 694 693 680 672 671 665 660 653 642 637 634 633 634 633 635 635 634 635 635 635 637 637 640 643 646 649 650 652 654 655 657 659 662 665 668 671 673 674 677 679 682 686 688 692 695 698 701 704 707 710 712 715 717 720 722 724 726 727 727 728 728 729 730 731 733 734
763 763 750 727 720 721 712 704 704 702 699 703 706 703 697 692 692 696 692 683 685 689 681 672 665 653 643 639 634 630 629 632 633 630 630 629 628 628 629 631 634 635 638 640 642 645 646 649 651 653 655 657 660 664 666 669 671 673 676 678 681 684 687 690 694 696 699 702 705 707 710 713 715 717 720 721 723 724 725 726 726 727 729 730 731 732
763 763 760 747 738 735 722 705 702 700 694 695 699 698 698 695 694 701 702 686 680 685 678 669 663 646 632 630 628 625 626 628 627 627 626 624 624 625 628 631 632 634 637 637 639 642 644 647 649 651 653 656 659 662 664 667 670 672 674 677 680 683 685 688 691 694 697 699 702 705 707 710 713 715 717 719 720 722 722 723 724 725 727 727 729 730
763 763 761 755 745 737 725 712 712 710 700 696 695 691 691 692 692 699 701 688 681 684 677 673 670 650 630 630 632 629 629 628 626 624 622 624 626 628 631 634 635 635 636 637 639 641 644 646 648 649 652 655 657 660 662 665 668 670 673 675 678 681 683 686 689 691 694 697 700 703 705 708 710 713 715 716 718 719 720 721 722 723 724 725 727 728
766 768 764 755 742 731 723 713 709 710 709 707 704 700 698 695 690 688 688 683 681 680 678 682 681 657 635 632 634 633 631 631 630 627 626 629 632 634 635 636 637 637 637 638 639 642 644 646 648 650 652 654 657 658 661 663 666 668 671 673 676 678 681 684 686 689 692 695 698 700 703 706 708 710 712 714 715 717 718 719 720 721 722 723 725 726
773 771 769 768 760 746 732 715 707 713 723 725 724 726 725 717 707 697 689 687 688 681 675 679 675 656 639 633 632 632 632 633 635 634 633 634 634 636 637 638 639 639 639 640 641 643 645 646 648 650 651 654 656 658 660 662 665 667 669 671 674 676 679 681 684 687 689 692 695 698 701 703 705 707 709 711 713 714 716 717 718 719 720 721 723 724
775 772 772 780 779 767 750 729 721 731 740 740 738 736 733 730 731 726 713 703 694 680 675 678 673 658 645 636 633 633 634 635 638 637 636 637 637 638 639 640 642 643 644 644 644 645 646 647 649 650 651 653 655 657 659 661 664 666 668 671 673 675 677 679 682 684 687 690 693 695 698 700 702 705 707 709 711 712 714 715 716 717 718 719 721 722
772 769 768 773 772 765 757 741 735 744 749 747 741 735 732 732 735 738 736 723 703 687 675 669 670 668 657 646 639 634 633 636 638 638 638 639 640 641 642 643 645 646 647 647 646 647 648 649 650 651 652 654 654 656 658 660 663 665 667 669 672 674 676 678 680 682 685 687 690 692 695 697 700 702 704 707 708 710 712 713 714 715 716 718 719 721
768 768 764 764 762 757 754 747 742 747 749 747 744 738 734 732 730 735 740 732 723 720 697 668 664 668 659 650 646 638 634 636 637 637 638 640 642 643 644 646 647 647 648 649 649 648 649 650 651 652 653 654 656 657 658 660 662 664 666 668 670 672 674 676 678 680 683 685 687 690 692 695 697 700 702 704 706 708 709 711 712 713 714 716 717 718
765 767 760 759 759 753 750 747 745 747 746 741 741 739 733 730 730 735 736 728 730 739 725 700 693 684 661 649 646 641 637 637 637 637 637 638 641 643 644 646 648 649 648 648 649 648 649 649 650 651 653 654 655 657 659 660 662 663 665 666 668 671 672 674 676 678 680 682 684 687 690 693 695 698 700 702 704 705 707 708 710 711 712 714 715 716
764 764 757 756 759 753 748 747 744 745 745 740 737 735 732 729 728 730 729 724 725 731 726 718 715 702 676 655 644 640 639 637 636 636 637 639 640 641 642 643 644 646 646 646 647 647 648 648 649 650 652 653 654 655 656 658 660 661 663 664 666 668 670 672 674 676 678 680 682 685 688 690 693 695 697 699 701 703 704 706 708 709 711 712 713 714
764 764 755 755 760 757 751 748 745 744 744 741 737 733 730 730 727 725 723 720 720 722 717 711 708 699 682 662 647 643 642 640 639 637 637 639 640 640 640 640 640 641 642 643 644 645 646 646 648 649 650 651 652 652 653 655 656 658 660 661 663 665 668 670 672 674 675 677 679 683 685 688 690 693 695 697 698 700 702 703 705 707 709 710 711 712
763 763 757 759 766 761 749 746 744 739 737 737 734 730 729 729 726 722 718 715 715 716 713 710 707 696 681 669 660 651 646 645 644 641 640 640 640 639 638 638 639 639 639 640 641 642 644 644 646 647 648 649 650 650 651 651 653 655 656 658 659 662 665 667 669 671 672 674 678 680 683 685 687 690 692 693 695 697 699 701 702 704 706 707 709 710
759 762 762 764 768 760 747 745 743 740 744 743 733 726 724 722 719 715 711 709 708 710 711 709 702 690 681 680 677 667 657 652 646 644 644 642 640 639 637 635 634 634 636 638 638 639 641 642 643 644 645 646 647 647 647 648 649 650 651 654 656 659 662 664 666 668 670 673 676 678 680 682 684 686 688 690 692 694 696 698 699 701 703 705 706 708
757 761 763 764 767 761 749 745 746 749 750 735 718 716 717 714 713 711 707 702 698 698 700 697 691 687 685 683 678 673 668 661 653 646 642 640 639 639 637 636 635 632 632 634 636 637 638 639 640 641 642 643 643 643 644 645 646 647 649 651 654 656 659 661 663 666 668 670 673 675 677 679 681 683 684 686 689 691 693 694 696 698 700 702 704 705
755 758 759 759 762 758 749 749 753 748 735 719 711 712 712 709 708 706 701 696 693 691 691 691 690 688 684 678 673 670 667 665 661 653 644 639 636 636 635 635 635 634 634 634 635 636 637 637 638 639 639 640 640 641 643 644 645 647 648 650 651 653 656 658 661 663 665 668 670 672 674 676 677 679 681 684 686 688 690 692 693 695 697 699 701 702
750 753 754 753 755 754 752 753 748 731 716 713 714 711 707 706 706 705 702 695 690 689 689 689 687 682 678 675 672 668 664 663 662 656 649 645 642 642 642 639 636 634 634 634 635 635 635 636 637 637 638 638 639 640 641 642 644 645 647 648 650 651 653 656 658 660 662 664 666 669 671 672 674 676 678 680 683 685 687 689 690 692 694 696 698 700
741 745 748 750 749 748 749 746 736 727 720 718 716 710 708 707 704 703 702 692 684 684 684 684 683 679 675 672 668 666 665 663 660 653 650 652 651 650 650 646 641 637 632 631 632 632 633 634 634 635 637 637 638 639 640 641 643 644 645 646 647 649 651 653 655 657 659 661 663 665 667 669 671 673 675 677 679 681 683 684 687 689 691 693 695 697
733 735 740 746 742 739 744 742 737 737 730 718 710 703 701 701 698 697 699 691 682 680 680 679 679 676 672 670 668 666 666 665 659 654 653 655 653 652 651 648 645 641 636 634 633 631 631 632 633 635 636 636 636 637 638 640 641 642 643 643 644 646 648 650 651 653 655 657 659 661 662 665 667 669 672 674 675 677 679 680 683 685 687 690 692 693
728 727 730 739 739 735 740 741 737 733 721 708 702 697 695 696 692 694 702 695 681 677 676 675 676 673 670 670 669 667 668 667 661 657 659 658 655 654 654 651 648 645 641 640 638 636 634 634 634 634 634 634 635 635 636 637 638 639 640 640 642 643 644 646 647 649 651 653 654 656 658 660 664 666 669 671 672 673 675 677 679 682 684 687 689 691
729 728 729 735 735 731 733 733 726 719 709 699 697 694 693 691 689 698 707 694 677 677 678 675 675 674 672 672 670 668 669 667 663 661 663 661 657 656 655 653 651 648 645 643 642 639 638 637 636 635 634 633 634 635 635 635 635 636 636 637 639 640 640 642 643 644 647 648 650 653 654 657 660 663 665 667 668 670 672 674 677 679 682 685 687 689
726 726 726 728 727 724 726 725 719 709 699 693 692 690 689 690 693 702 702 688 681 684 681 677 678 676 674 674 673 670 667 666 665 665 663 661 659 657 654 653 652 650 648 647 645 642 640 639 637 636 634 633 634 634 634 633 633 633 634 635 637 637 637 639 640 642 644 645 647 649 651 654 656 659 662 664 666 668 670 672 675 677 679 682 684 687
721 721 719 720 721 718 716 716 715 705 691 685 687 685 686 692 695 694 690 686 687 685 680 679 680 677 675 677 675 673 671 668 668 666 664 664 662 658 654 652 650 648 647 646 645 643 642 639 638 636 635 634 634 633 632 632 631 631 632 633 633 633 635 636 638 639 641 642 644 646 648 651 653 655 658 661 663 665 668 670 673 675 677 679 682 684
707 711 712 709 709 711 711 712 713 704 685 677 681 682 681 686 688 688 687 686 684 682 681 682 680 677 678 679 677 676 675 672 670 668 667 666 663 659 656 654 652 651 649 647 646 644 643 641 639 637 635 635 634 632 631 630 629 628 630 630 629 631 633 634 635 637 638 639 641 643 644 646 649 652 654 657 659 662 664 667 669 672 675 677 679 682
693 699 702 697 694 700 705 702 695 687 675 672 677 678 677 679 682 685 685 682 680 682 682 681 680 679 679 679 678 678 676 673 672 670 669 668 665 662 659 655 654 653 651 650 649 646 644 643 640 637 636 634 633 631 629 628 627 626 627 626 627 629 630 631 632 633 634 635 637 638 640 643 645 648 650 652 655 658 660 663 665 668 672 674 676 679
682 682 685 684 681 683 685 680 674 671 670 672 673 672 674 677 679 680 681 680 680 680 679 679 680 679 678 678 678 677 675 674 673 672 671 670 667 665 662 658 656 654 652 651 650 648 646 644 641 638 635 633 632 631 628 627 626 624 622 622 623 625 626 627 629 629 630 631 633 634 637 640 642 645 646 648 651 653 655 658 661 664 667 671 673 676
672 673 677 679 677 674 673 671 669 669 670 670 671 671 672 674 675 675 677 678 677 676 676 678 678 676 676 677 677 676 675 674 673 673 672 670 668 667 664 661 658 656 654 652 650 648 647 644 641 638 634 631 631 630 628 626 625 622 620 620 621 623 623 624 626 626 626 628 630 632 635 637 639 642 644 646 647 649 650 652 655 658 662 666 669 672
671 673 675 677 678 678 676 670 668 669 668 666 667 668 669 671 673 673 673 673 672 673 673 673 673 673 674 675 675 675 674 672 672 673 671 670 670 668 665 663 661 658 656 653 650 648 646 643 641 639 635 632 631 629 626 625 623 622 621 621 621 622 623 623 624 624 625 626 628 630 632 634 636 638 641 643 645 647 649 650 652 654 657 660 664 668
670 672 675 675 675 676 673 668 665 666 666 664 665 666 667 669 671 671 670 669 669 669 670 669 670 671 671 672 673 672 671 671 672 672 671 671 670 668 667 666 663 660 657 654 651 647 645 643 641 639 636 633 630 627 625 623 622 621 621 620 620 620 620 621 622 622 623 625 626 628 629 630 632 635 637 640 642 644 646 647 649 650 651 652 655 659
666 672 674 672 672 672 670 667 667 667 665 663 662 663 664 665 667 668 669 668 668 668 668 668 668 669 669 670 671 670 671 672 672 672 672 672 670 669 669 667 664 662 658 655 651 647 644 643 641 639 636 633 629 627 625 623 621 620 619 619 619 618 618 618 619 620 621 622 624 625 626 628 630 632 634 637 639 640 642 643 644 645 647 648 650 651
665 670 670 670 675 675 669 665 665 667 665 660 658 659 660 660 661 663 665 666 666 666 666 667 667 667 668 669 669 670 671 672 672 673 673 671 670 670 670 668 666 663 659 655 651 647 643 642 641 638 635 632 629 627 626 624 622 619 618 617 618 617 616 615 616 617 618 620 621 623 624 626 628 630 632 634 636 639 641 643 644 645 646 648 650 651
660 662 662 666 669 667 661 658 659 661 660 656 654 656 656 656 658 660 661 662 663 663 664 666 667 667 667 668 669 670 671 672 673 673 672 672 672 671 670 669 668 664 660 655 651 647 643 640 639 638 635 631 628 627 626 625 622 619 617 616 616 616 615 614 613 614 615 617 619 621 622 624 626 628 630 632 634 637 639 642 645 647 648 649 651 652